| time (UTC) | temp F | wind direction | speed MPH | gust MPH | rain 1hr in | rain 24hr in | rain mn in | humidity % | barometer mb |
| 20260903151448 | 86 | 184 | 0.0 | 5.0 | 0.00 | 0.00 | 0.00 | 78 | 1010.6 |
| 20260903150449 | 85 | 156 | 0.0 | 4.0 | 0.00 | 0.00 | 0.00 | 79 | 1010.6 |
| 20260903145449 | 85 | 156 | 0.0 | 1.0 | 0.00 | 0.00 | 0.00 | 80 | 1010.7 |
| 20260903144448 | 84 | 156 | 0.0 | 2.0 | 0.00 | 0.00 | 0.00 | 81 | 1010.6 |
| 20260903143449 | 84 | 156 | 0.0 | 3.0 | 0.00 | 0.00 | 0.00 | 82 | 1010.6 |
| 20260903142451 | 84 | 156 | 0.0 | 2.0 | 0.00 | 0.00 | 0.00 | 82 | 1010.5 |
| 20260903141448 | 83 | 156 | 1.0 | 4.0 | 0.00 | 0.00 | 0.00 | 83 | 1010.3 |
| 20260903140449 | 83 | 164 | 0.0 | 3.0 | 0.00 | 0.00 | 0.00 | 84 | 1010.3 |
| 20260903135449 | 82 | 164 | 0.0 | 2.0 | 0.00 | 0.00 | 0.00 | 84 | 1010.3 |
| 20260903134449 | 81 | 173 | 0.0 | 0.0 | 0.00 | 0.00 | 0.00 | 84 | 1010.3 |
| 20260903133448 | 81 | 173 | 0.0 | 0.0 | 0.00 | 0.00 | 0.00 | 84 | 1010.3 |
| 20260903132452 | 81 | 173 | 0.0 | 0.0 | 0.00 | 0.00 | 0.00 | 84 | 1010.2 |
| 20260903131451 | 81 | 173 | 0.0 | 0.0 | 0.00 | 0.00 | 0.00 | 84 | 1010.2 |
| 20260903130449 | 81 | 173 | 0.0 | 0.0 | 0.00 | 0.00 | 0.00 | 84 | 1010.2 |
| 20260903125448 | 81 | 173 | 0.0 | 0.0 | 0.00 | 0.00 | 0.00 | 84 | 1009.8 |
| 20260903124448 | 81 | 173 | 0.0 | 0.0 | 0.00 | 0.00 | 0.00 | 84 | 1009.6 |
| 20260903123448 | 81 | 173 | 0.0 | 0.0 | 0.00 | 0.00 | 0.00 | 83 | 1009.6 |
| 20260903122449 | 81 | 173 | 0.0 | 1.0 | 0.00 | 0.00 | 0.00 | 82 | 1009.5 |
| 20260903121448 | 81 | 173 | 0.0 | 2.0 | 0.00 | 0.00 | 0.00 | 82 | 1009.4 |
| 20260903120451 | 81 | 173 | 0.0 | 4.0 | 0.00 | 0.00 | 0.00 | 82 | 1009.4 |
| 20260903115448 | 81 | 173 | 0.0 | 2.0 | 0.00 | 0.00 | 0.00 | 81 | 1009.6 |
| 20260903114451 | 81 | 173 | 0.0 | 2.0 | 0.00 | 0.00 | 0.00 | 81 | 1009.6 |
| 20260903113448 | 81 | 173 | 0.0 | 3.0 | 0.00 | 0.00 | 0.00 | 80 | 1009.6 |
| 20260903112448 | 82 | 175 | 0.0 | 4.0 | 0.00 | 0.00 | 0.00 | 80 | 1009.5 |
| 20260903111448 | 82 | 144 | 2.0 | 4.0 | 0.00 | 0.00 | 0.00 | 80 | 1009.5 |
| 20260903110448 | 82 | 168 | 0.0 | 5.0 | 0.00 | 0.00 | 0.00 | 81 | 1009.5 |
| 20260903105448 | 83 | 154 | 0.0 | 3.0 | 0.00 | 0.00 | 0.00 | 81 | 1009.3 |
| 20260903104448 | 83 | 154 | 0.0 | 5.0 | 0.00 | 0.00 | 0.00 | 81 | 1009.2 |
| 20260903103448 | 83 | 154 | 0.0 | 2.0 | 0.00 | 0.00 | 0.00 | 81 | 1009.2 |
| 20260903102448 | 83 | 154 | 0.0 | 2.0 | 0.00 | 0.00 | 0.00 | 81 | 1009.1 |
| 20260903101448 | 83 | 154 | 0.0 | 4.0 | 0.00 | 0.00 | 0.00 | 81 | 1009.1 |
| 20260903100448 | 83 | 156 | 0.0 | 2.0 | 0.00 | 0.00 | 0.00 | 81 | 1009.1 |
| 20260903095448 | 83 | 156 | 0.0 | 3.0 | 0.00 | 0.00 | 0.00 | 81 | 1009.1 |
| 20260903094448 | 83 | 156 | 0.0 | 3.0 | 0.00 | 0.00 | 0.00 | 81 | 1009.2 |
| 20260903093448 | 83 | 157 | 0.0 | 4.0 | 0.00 | 0.00 | 0.00 | 81 | 1009.2 |
| 20260903092448 | 83 | 154 | 0.0 | 3.0 | 0.00 | 0.00 | 0.00 | 81 | 1009.2 |
| 20260903091448 | 83 | 154 | 0.0 | 2.0 | 0.00 | 0.00 | 0.00 | 81 | 1009.1 |
| 20260903090448 | 83 | 154 | 0.0 | 3.0 | 0.00 | 0.00 | 0.00 | 80 | 1009.1 |
| 20260903085448 | 83 | 154 | 1.0 | 3.0 | 0.00 | 0.00 | 0.00 | 80 | 1009.2 |
| 20260903084448 | 83 | 154 | 0.0 | 1.0 | 0.00 | 0.00 | 0.00 | 80 | 1009.1 |
| 20260903083448 | 83 | 154 | 0.0 | 4.0 | 0.00 | 0.00 | 0.00 | 80 | 1009.1 |
| 20260903082448 | 83 | 154 | 0.0 | 4.0 | 0.00 | 0.00 | 0.00 | 80 | 1009.1 |
| 20260903081448 | 83 | 154 | 0.0 | 4.0 | 0.00 | 0.00 | 0.00 | 80 | 1008.9 |
| 20260903080449 | 83 | 153 | 0.0 | 3.0 | 0.00 | 0.00 | 0.00 | 80 | 1008.9 |
| 20260903075448 | 83 | 152 | 0.0 | 5.0 | 0.00 | 0.00 | 0.00 | 79 | 1009.1 |
| 20260903074451 | 83 | 150 | 2.0 | 3.0 | 0.00 | 0.00 | 0.00 | 79 | 1009.1 |
| 20260903073451 | 83 | 149 | 0.0 | 5.0 | 0.00 | 0.00 | 0.00 | 79 | 1009.1 |
| 20260903072448 | 83 | 149 | 0.0 | 4.0 | 0.00 | 0.00 | 0.00 | 79 | 1009.1 |
| 20260903071448 | 83 | 149 | 0.0 | 4.0 | 0.00 | 0.00 | 0.00 | 79 | 1009.2 |
| 20260903070448 | 84 | 149 | 0.0 | 5.0 | 0.00 | 0.00 | 0.00 | 79 | 1009.2 |
| 20260903065448 | 84 | 148 | 1.0 | 5.0 | 0.00 | 0.00 | 0.00 | 79 | 1009.6 |
| 20260903064447 | 84 | 146 | 1.0 | 4.0 | 0.00 | 0.00 | 0.00 | 79 | 1009.7 |
| 20260903063448 | 84 | 146 | 0.0 | 4.0 | 0.00 | 0.00 | 0.00 | 79 | 1009.7 |
| 20260903062448 | 84 | 146 | 0.0 | 2.0 | 0.00 | 0.00 | 0.00 | 78 | 1009.7 |
| 20260903061448 | 84 | 146 | 0.0 | 1.0 | 0.00 | 0.00 | 0.00 | 79 | 1009.8 |
| 20260903060448 | 84 | 146 | 0.0 | 2.0 | 0.00 | 0.00 | 0.00 | 78 | 1009.8 |
| 20260903055451 | 84 | 146 | 0.0 | 2.0 | 0.00 | 0.00 | 0.00 | 78 | 1010.1 |
| 20260903054448 | 84 | 146 | 0.0 | 4.0 | 0.00 | 0.00 | 0.00 | 77 | 1010.2 |
| 20260903053448 | 85 | 146 | 0.0 | 2.0 | 0.00 | 0.00 | 0.00 | 77 | 1010.2 |
| 20260903052448 | 85 | 146 | 0.0 | 1.0 | 0.00 | 0.00 | 0.00 | 77 | 1010.7 |
| 20260903051451 | 85 | 146 | 0.0 | 0.0 | 0.00 | 0.00 | 0.00 | 77 | 1010.7 |
| 20260903050448 | 85 | 146 | 0.0 | 0.0 | 0.00 | 0.00 | 0.00 | 76 | 1010.7 |
| 20260903045448 | 85 | 146 | 0.0 | 2.0 | 0.00 | 0.00 | 0.00 | 77 | 1010.7 |
| 20260903044448 | 85 | 146 | 0.0 | 1.0 | 0.00 | 0.00 | 0.00 | 77 | 1010.6 |
| 20260903043448 | 85 | 146 | 0.0 | 1.0 | 0.00 | 0.00 | 0.00 | 76 | 1010.6 |
| 20260903042448 | 85 | 146 | 0.0 | 3.0 | 0.00 | 0.00 | 0.00 | 76 | 1010.5 |
| 20260903041447 | 85 | 146 | 0.0 | 0.0 | 0.00 | 0.00 | 0.00 | 75 | 1010.2 |
| 20260903040447 | 85 | 146 | 0.0 | 2.0 | 0.00 | 0.00 | 0.00 | 75 | 1010.2 |
| 20260903035448 | 85 | 146 | 0.0 | 4.0 | 0.00 | 0.00 | 0.00 | 75 | 1010.2 |
| 20260903034447 | 85 | 155 | 0.0 | 6.0 | 0.00 | 0.00 | 0.00 | 74 | 1010.1 |
| 20260903033448 | 85 | 156 | 2.0 | 4.0 | 0.00 | 0.00 | 0.00 | 74 | 1010.1 |
| 20260903032447 | 86 | 156 | 0.0 | 2.0 | 0.00 | 0.00 | 0.00 | 73 | 1009.8 |
| 20260903031451 | 86 | 156 | 0.0 | 1.0 | 0.00 | 0.00 | 0.00 | 72 | 1009.7 |
| 20260903030447 | 86 | 156 | 1.0 | 7.0 | 0.00 | 0.00 | 0.00 | 72 | 1009.7 |
| 20260903025448 | 86 | 169 | 2.0 | 4.0 | 0.00 | 0.00 | 0.00 | 70 | 1009.4 |
| 20260903024447 | 86 | 170 | 0.0 | 9.0 | 0.00 | 0.00 | 0.00 | 69 | 1009.2 |
| 20260903023447 | 86 | 159 | 3.0 | 6.0 | 0.00 | 0.00 | 0.00 | 68 | 1009.2 |
| 20260903022447 | 87 | 159 | 0.0 | 6.0 | 0.00 | 0.00 | 0.00 | 66 | 1009.2 |
| 20260903021448 | 87 | 169 | 1.0 | 7.0 | 0.00 | 0.00 | 0.00 | 65 | 1008.7 |
| 20260903020447 | 87 | 186 | 0.0 | 4.0 | 0.00 | 0.00 | 0.00 | 63 | 1008.7 |
| 20260903015448 | 87 | 189 | 0.0 | 10.0 | 0.00 | 0.00 | 0.00 | 62 | 1008.6 |
| 20260903014447 | 88 | 134 | 2.0 | 4.0 | 0.00 | 0.00 | 0.00 | 60 | 1008.4 |
| 20260903013451 | 88 | 150 | 2.0 | 9.0 | 0.00 | 0.00 | 0.00 | 59 | 1008.4 |
| 20260903012450 | 89 | 157 | 2.0 | 6.0 | 0.00 | 0.00 | 0.00 | 58 | 1008.3 |
| 20260903011447 | 89 | 144 | 1.0 | 11.0 | 0.00 | 0.00 | 0.00 | 57 | 1008.1 |
| 20260903010450 | 90 | 154 | 0.0 | 11.0 | 0.00 | 0.00 | 0.00 | 55 | 1008.1 |
| 20260903005448 | 90 | 170 | 2.0 | 8.0 | 0.00 | 0.00 | 0.00 | 53 | 1008.0 |
| 20260903004450 | 91 | 178 | 7.0 | 7.0 | 0.00 | 0.00 | 0.00 | 52 | 1007.7 |
| 20260903003448 | 91 | 190 | 4.0 | 8.0 | 0.00 | 0.00 | 0.00 | 50 | 1007.7 |
| 20260903002448 | 91 | 140 | 5.0 | 9.0 | 0.00 | 0.00 | 0.00 | 49 | 1007.4 |
| 20260903001448 | 92 | 209 | 3.0 | 5.0 | 0.00 | 0.00 | 0.00 | 49 | 1007.2 |
| 20260903000448 | 92 | 140 | 3.0 | 12.0 | 0.00 | 0.00 | 0.00 | 49 | 1007.2 |
| 20260902235448 | 93 | 173 | 4.0 | 9.0 | 0.00 | 0.00 | 0.00 | 48 | 1007.2 |
| 20260902234448 | 93 | 136 | 7.0 | 10.0 | 0.00 | 0.00 | 0.00 | 47 | 1007.3 |
| 20260902233447 | 94 | 82 | 3.0 | 11.0 | 0.00 | 0.00 | 0.00 | 47 | 1007.3 |
| 20260902232451 | 94 | 160 | 3.0 | 6.0 | 0.00 | 0.00 | 0.00 | 47 | 1007.2 |
| 20260902231447 | 95 | 160 | 0.0 | 12.0 | 0.00 | 0.00 | 0.00 | 48 | 1007.2 |
| 20260902230447 | 95 | 218 | 5.0 | 9.0 | 0.00 | 0.00 | 0.00 | 47 | 1007.2 |
| 20260902225447 | 96 | 126 | 0.0 | 7.0 | 0.00 | 0.00 | 0.00 | 46 | 1007.2 |
| 20260902224450 | 96 | 115 | 3.0 | 10.0 | 0.00 | 0.00 | 0.00 | 46 | 1007.2 |
| 20260902223451 | 97 | 152 | 1.0 | 7.0 | 0.00 | 0.00 | 0.00 | 45 | 1007.2 |
| 20260902222450 | 97 | 201 | 3.0 | 6.0 | 0.00 | 0.00 | 0.00 | 44 | 1007.2 |
| 20260902221448 | 98 | 148 | 2.0 | 6.0 | 0.00 | 0.00 | 0.00 | 42 | 1007.1 |
| 20260902220448 | 98 | 205 | 3.0 | 5.0 | 0.00 | 0.00 | 0.00 | 41 | 1007.2 |
| 20260902215450 | 99 | 178 | 1.0 | 6.0 | 0.00 | 0.00 | 0.00 | 41 | 1007.2 |
| 20260902214447 | 99 | 169 | 1.0 | 5.0 | 0.00 | 0.00 | 0.00 | 41 | 1007.3 |
| 20260902213447 | 99 | 165 | 2.0 | 5.0 | 0.00 | 0.00 | 0.00 | 42 | 1007.3 |
| 20260902212448 | 98 | 137 | 1.0 | 5.0 | 0.00 | 0.00 | 0.00 | 41 | 1007.7 |
| 20260902211447 | 98 | 165 | 2.0 | 8.0 | 0.00 | 0.00 | 0.00 | 40 | 1007.7 |
| 20260902210447 | 98 | 196 | 0.0 | 6.0 | 0.00 | 0.00 | 0.00 | 40 | 1007.7 |
| 20260902205447 | 99 | 141 | 3.0 | 13.0 | 0.00 | 0.00 | 0.00 | 39 | 1007.7 |
| 20260902204448 | 98 | 175 | 3.0 | 10.0 | 0.00 | 0.00 | 0.00 | 41 | 1007.9 |
| 20260902203448 | 98 | 157 | 3.0 | 9.0 | 0.00 | 0.00 | 0.00 | 40 | 1007.9 |
| 20260902202450 | 98 | 188 | 5.0 | 6.0 | 0.00 | 0.00 | 0.00 | 41 | 1008.0 |
| 20260902201447 | 98 | 200 | 0.0 | 9.0 | 0.00 | 0.00 | 0.00 | 41 | 1008.3 |
| 20260902200451 | 98 | 172 | 2.0 | 7.0 | 0.00 | 0.00 | 0.00 | 40 | 1008.3 |
| 20260902195447 | 98 | 246 | 4.0 | 9.0 | 0.00 | 0.00 | 0.00 | 42 | 1008.7 |
| 20260902194447 | 98 | 175 | 2.0 | 9.0 | 0.00 | 0.00 | 0.00 | 42 | 1008.9 |
| 20260902193447 | 98 | 144 | 3.0 | 6.0 | 0.00 | 0.00 | 0.00 | 42 | 1008.9 |
| 20260902192447 | 98 | 202 | 1.0 | 6.0 | 0.00 | 0.00 | 0.00 | 42 | 1009.1 |
| 20260902191447 | 98 | 171 | 2.0 | 6.0 | 0.00 | 0.00 | 0.00 | 43 | 1009.2 |
| 20260902190448 | 97 | 234 | 1.0 | 6.0 | 0.00 | 0.00 | 0.00 | 45 | 1009.2 |
| 20260902185447 | 96 | 123 | 1.0 | 9.0 | 0.00 | 0.00 | 0.00 | 46 | 1009.6 |
| 20260902184447 | 96 | 149 | 1.0 | 6.0 | 0.00 | 0.00 | 0.00 | 48 | 1009.8 |
| 20260902183450 | 95 | 246 | 2.0 | 6.0 | 0.00 | 0.00 | 0.00 | 50 | 1009.8 |
| 20260902182450 | 95 | 268 | 2.0 | 7.0 | 0.00 | 0.00 | 0.00 | 50 | 1009.9 |
| 20260902181447 | 95 | 238 | 1.0 | 7.0 | 0.00 | 0.00 | 0.00 | 50 | 1010.3 |
| 20260902180447 | 94 | 349 | 2.0 | 10.0 | 0.00 | 0.00 | 0.00 | 52 | 1010.3 |
| 20260902175450 | 93 | 260 | 2.0 | 9.0 | 0.00 | 0.00 | 0.00 | 53 | 1010.7 |
| 20260902174447 | 93 | 223 | 3.0 | 7.0 | 0.00 | 0.00 | 0.00 | 57 | 1010.8 |
| 20260902173451 | 80 | 202 | 0.0 | 0.0 | 0.00 | 0.00 | 0.00 | 88 | 1010.7 |
| 20260902172447 | 80 | 202 | 0.0 | 0.0 | 0.00 | 0.00 | 0.00 | 88 | 1011.0 |
| 20260902171447 | 80 | 202 | 0.0 | 0.0 | 0.00 | 0.00 | 0.00 | 88 | 1011.2 |
| 20260902170447 | 80 | 202 | 0.0 | 0.0 | 0.00 | 0.00 | 0.00 | 88 | 1011.2 |
| 20260902165450 | 80 | 202 | 0.0 | 0.0 | 0.00 | 0.00 | 0.00 | 88 | 1011.3 |
| 20260902164447 | 80 | 202 | 0.0 | 0.0 | 0.00 | 0.00 | 0.00 | 88 | 1011.5 |
| 20260902163447 | 80 | 202 | 0.0 | 0.0 | 0.00 | 0.00 | 0.00 | 88 | 1011.5 |
| 20260902162447 | 80 | 202 | 0.0 | 0.0 | 0.00 | 0.00 | 0.00 | 88 | 1011.6 |
| 20260902161447 | 80 | 202 | 0.0 | 0.0 | 0.00 | 0.00 | 0.00 | 88 | 1011.6 |
| 20260902160447 | 80 | 202 | 0.0 | 0.0 | 0.00 | 0.00 | 0.00 | 88 | 1011.6 |
| 20260902155447 | 80 | 202 | 0.0 | 0.0 | 0.00 | 0.00 | 0.00 | 88 | 1011.5 |
| 20260902154447 | 80 | 202 | 0.0 | 0.0 | 0.00 | 0.00 | 0.00 | 88 | 1011.5 |
| 20260902153447 | 80 | 202 | 0.0 | 0.0 | 0.00 | 0.00 | 0.00 | 88 | 1011.5 |
| 20260902152447 | 80 | 202 | 0.0 | 0.0 | 0.00 | 0.00 | 0.00 | 88 | 1011.3 |